Weather History for Athens, OH

Change the Weather History Date:

Thursday, September 5, 2013

  Actual Average (KPKB) Record (KPKB)
Temperature  
Mean Temperature 67 °F 70 °F  
Max Temperature 80 °F 81 °F 98 °F (1899)
Min Temperature 54 °F 59 °F 43 °F (1902)
Cooling Degree Days 2 6  
Growing Degree Days 17 (Base 50)    
Moisture  
Dew Point 58 °F    
Average Humidity 76    
Maximum Humidity 96    
Minimum Humidity 52    
Precipitation  
Precipitation 0.00 in 0.11 in 1.27 in (2011)
Sea Level Pressure  
Sea Level Pressure 30.16 in    
Wind  
Wind Speed 2 mph (North)    
Max Wind Speed 9 mph    
Max Gust Speed -    
Visibility 10 miles    
Events      
T = Trace of Precipitation, MM = Missing Value Source: NWS Daily Summary

Daily Weather History Graph

Daily Weather History Graph

Search for Another Location

Airport:

Trip Planner

Search our weather history database for the weather conditions in past years. The results will help you decide how hot, cold, wet, or windy it might be!

Date:

Astronomy

Sep. 05, 2013 Rise Set
Actual Time 7:01 AM EDT 7:52 PM EDT
Civil Twilight 6:34 AM EDT 8:20 PM EDT
Nautical Twilight 6:01 AM EDT 8:52 PM EDT
Astronomical Twilight 5:28 AM EDT 9:25 PM EDT
Moon 7:11 AM EDT (9/5) 7:44 PM EDT (9/5)
Length of Visible Light 13h 46m
Length of Day
12h 51m
New Moon, 0% of the Moon is Illuminated
Sep 5
New Moon
Sep 12
First Quarter
Sep 19
Full
Sep 26
Last Quarter
Oct 4
New

Hourly Weather History & Observations

Time (EDT) Temp. Heat Index Dew Point Humidity Pressure Visibility Wind Dir Wind Speed Gust Speed Precip Events Conditions
12:15 AM 60.1 °F - 58.3 °F 94% 30.13 in 10.0 mi Calm Calm - N/A   Clear
12:35 AM 59.2 °F - 57.6 °F 94% 30.14 in 10.0 mi Calm Calm - N/A   Clear
12:55 AM 59.0 °F - 57.4 °F 94% 30.14 in 10.0 mi Calm Calm - N/A   Clear
1:15 AM 58.5 °F - 57.2 °F 96% 30.14 in 10.0 mi Calm Calm - N/A   Clear
1:35 AM 58.8 °F - 57.2 °F 94% 30.13 in 10.0 mi Calm Calm - N/A   Clear
1:55 AM 57.7 °F - 56.3 °F 95% 30.13 in 10.0 mi Calm Calm - N/A   Clear
2:15 AM 57.9 °F - 56.5 °F 95% 30.13 in 10.0 mi Calm Calm - N/A   Clear
2:35 AM 57.4 °F - 56.1 °F 96% 30.13 in 10.0 mi Calm Calm - N/A   Clear
2:55 AM 57.4 °F - 55.9 °F 95% 30.14 in 10.0 mi Calm Calm - N/A   Clear
3:15 AM 57.6 °F - 56.3 °F 96% 30.14 in 10.0 mi Calm Calm - N/A   Clear
3:35 AM 57.2 °F - 55.8 °F 95% 30.14 in 10.0 mi Calm Calm - N/A   Clear
3:55 AM 56.5 °F - 55.0 °F 95% 30.14 in 10.0 mi Calm Calm - N/A   Clear
4:15 AM 56.3 °F - 55.0 °F 96% 30.14 in 10.0 mi Calm Calm - N/A   Clear
4:35 AM 56.3 °F - 54.9 °F 95% 30.14 in 10.0 mi Calm Calm - N/A   Clear
4:55 AM 55.6 °F - 54.3 °F 96% 30.14 in 10.0 mi Calm Calm - N/A   Clear
5:15 AM 55.8 °F - 54.5 °F 96% 30.14 in 10.0 mi Calm Calm - N/A   Clear
5:35 AM 55.4 °F - 54.0 °F 95% 30.14 in 10.0 mi Calm Calm - N/A   Clear
5:55 AM 55.2 °F - 53.8 °F 95% 30.14 in 10.0 mi Calm Calm - N/A   Clear
6:15 AM 54.9 °F - 53.6 °F 96% 30.14 in 10.0 mi Calm Calm - N/A   Clear
6:35 AM 55.0 °F - 53.8 °F 96% 30.15 in 7.0 mi Calm Calm - N/A   Clear
6:55 AM 54.5 °F - 53.4 °F 96% 30.15 in 10.0 mi Calm Calm - N/A   Clear
7:15 AM 54.5 °F - 53.4 °F 96% 30.16 in 7.0 mi Calm Calm - N/A   Clear
7:35 AM 54.7 °F - 53.6 °F 96% 30.16 in 10.0 mi Calm Calm - N/A   Clear
7:55 AM 56.3 °F - 55.2 °F 96% 30.16 in 10.0 mi Calm Calm - N/A   Clear
8:15 AM 57.4 °F - 56.3 °F 96% 30.17 in 10.0 mi Calm Calm - N/A   Clear
8:35 AM 59.7 °F - 58.3 °F 95% 30.17 in 10.0 mi Calm Calm - N/A   Clear
8:55 AM 62.2 °F - 59.5 °F 91% 30.17 in 10.0 mi Calm Calm - N/A   Clear
9:15 AM 64.4 °F - 60.1 °F 86% 30.18 in 10.0 mi Calm Calm - N/A   Clear
9:35 AM 67.1 °F - 60.6 °F 80% 30.18 in 10.0 mi North 4.6 mph - N/A   Clear
9:55 AM 68.9 °F - 60.3 °F 74% 30.19 in 10.0 mi North 4.6 mph - N/A   Clear
10:15 AM 69.6 °F - 61.0 °F 74% 30.19 in 10.0 mi NNW 4.6 mph - N/A   Clear
10:35 AM 70.3 °F - 61.2 °F 73% 30.19 in 10.0 mi NNW 3.5 mph - N/A   Clear
10:55 AM 72.0 °F - 62.6 °F 72% 30.19 in 10.0 mi NE 3.5 mph - N/A   Clear
11:15 AM 72.5 °F - 61.9 °F 69% 30.19 in 10.0 mi Calm Calm - N/A   Clear
11:35 AM 74.1 °F - 62.4 °F 67% 30.19 in 10.0 mi Calm Calm - N/A   Clear
11:55 AM 73.8 °F - 61.9 °F 66% 30.19 in 10.0 mi Calm Calm - N/A   Clear
12:15 PM 75.2 °F - 63.0 °F 66% 30.18 in 10.0 mi WNW 3.5 mph - N/A   Scattered Clouds
12:35 PM 76.1 °F - 62.4 °F 62% 30.18 in 10.0 mi NE 3.5 mph - N/A   Scattered Clouds
12:55 PM 76.1 °F - 62.4 °F 62% 30.18 in 10.0 mi North 4.6 mph - N/A   Mostly Cloudy
1:15 PM 77.2 °F - 62.6 °F 61% 30.18 in 10.0 mi Calm Calm - N/A   Scattered Clouds
1:35 PM 77.0 °F - 61.9 °F 59% 30.18 in 10.0 mi North 5.8 mph - N/A   Mostly Cloudy
1:55 PM 77.2 °F - 62.1 °F 59% 30.17 in 10.0 mi NNW 4.6 mph - N/A   Scattered Clouds
2:15 PM 79.0 °F - 62.1 °F 56% 30.17 in 10.0 mi West 4.6 mph - N/A   Scattered Clouds
2:35 PM 78.6 °F - 61.3 °F 55% 30.16 in 10.0 mi North 6.9 mph - N/A   Mostly Cloudy
2:55 PM 78.1 °F - 62.1 °F 58% 30.16 in 10.0 mi WNW 3.5 mph - N/A   Scattered Clouds
3:15 PM 80.4 °F 81.4 °F 61.2 °F 52% 30.15 in 10.0 mi NNW 8.1 mph - N/A   Mostly Cloudy
3:35 PM 79.0 °F - 61.9 °F 56% 30.15 in 10.0 mi North 4.6 mph - N/A   Overcast
3:55 PM 79.9 °F - 61.7 °F 54% 30.14 in 10.0 mi WNW 9.2 mph - N/A   Mostly Cloudy
4:15 PM 79.7 °F - 61.5 °F 54% 30.14 in 10.0 mi North 4.6 mph - N/A   Scattered Clouds
4:35 PM 78.8 °F - 61.2 °F 55% 30.14 in 10.0 mi NW 5.8 mph - N/A   Clear
4:55 PM 77.9 °F - 61.7 °F 57% 30.14 in 10.0 mi North 3.5 mph - N/A   Mostly Cloudy
5:15 PM 79.3 °F - 62.4 °F 56% 30.14 in 10.0 mi North 5.8 mph - N/A   Scattered Clouds
5:35 PM 79.2 °F - 60.6 °F 53% 30.14 in 10.0 mi NNW 8.1 mph - N/A   Clear
5:55 PM 79.2 °F - 61.5 °F 55% 30.14 in 10.0 mi NNW 5.8 mph - N/A   Scattered Clouds
6:15 PM 78.3 °F - 61.5 °F 56% 30.14 in 10.0 mi NNW 4.6 mph - N/A   Scattered Clouds
6:35 PM 77.7 °F - 60.8 °F 56% 30.14 in 10.0 mi North 5.8 mph - N/A   Clear
6:55 PM 76.5 °F - 61.2 °F 59% 30.14 in 10.0 mi North 4.6 mph - N/A   Clear
7:15 PM 75.6 °F - 61.2 °F 61% 30.14 in 10.0 mi Calm Calm - N/A   Clear
7:35 PM 74.1 °F - 62.1 °F 66% 30.14 in 10.0 mi Calm Calm - N/A   Mostly Cloudy
7:55 PM 72.7 °F - 61.7 °F 68% 30.14 in 10.0 mi North 3.5 mph - N/A   Mostly Cloudy
8:15 PM 71.6 °F - 60.8 °F 69% 30.15 in 10.0 mi North 3.5 mph - N/A   Scattered Clouds
8:35 PM 68.4 °F - 62.4 °F 81% 30.16 in 10.0 mi North 3.5 mph - N/A   Scattered Clouds
8:55 PM 69.1 °F - 59.9 °F 72% 30.16 in 10.0 mi North 4.6 mph - N/A   Clear
9:15 PM 68.4 °F - 58.1 °F 70% 30.17 in 10.0 mi North 5.8 mph - N/A   Clear
9:35 PM 67.5 °F - 56.8 °F 69% 30.17 in 10.0 mi NNE 5.8 mph - N/A   Clear
9:55 PM 66.4 °F - 55.8 °F 69% 30.18 in 10.0 mi NNE 6.9 mph - N/A   Clear
10:15 PM 65.7 °F - 54.5 °F 67% 30.19 in 10.0 mi NNE 6.9 mph - N/A   Clear
10:35 PM 64.6 °F - 53.6 °F 68% 30.19 in 10.0 mi NNE 4.6 mph - N/A   Clear
10:55 PM 63.5 °F - 53.1 °F 69% 30.20 in 10.0 mi North 3.5 mph - N/A   Clear
11:15 PM 62.4 °F - 52.2 °F 69% 30.20 in 10.0 mi North 4.6 mph - N/A   Clear
11:35 PM 61.5 °F - 51.4 °F 69% 30.21 in 10.0 mi North 4.6 mph - N/A   Clear
11:55 PM 60.6 °F - 50.9 °F 70% 30.21 in 10.0 mi NNE 3.5 mph - N/A   Clear